JTA58 ROAH-RJFF

Flight info

Callsign JTA58
Flight time 1h 16m
Altitude 35000
Route AMAMI Y25 GOKYO/N0459F360 Y25 ISKUP
Aircraft B738/M-SDE2E3FGHIRWXY/LB1

Departure

Time 2026-04-22 21:58
Airport Naha International Airport (ROAH)

Arrival

Time 2026-04-22 23:14
Airport Fukuoka Airport (RJFF)
Time Latitude Longitude Altitude Speed Heading
2026-04-22 21:39 26.20726 127.64860 29 ft 0 kts 48°
2026-04-22 21:52 26.20714 127.64844 28 ft 2 kts 47°
2026-04-22 21:52 26.20704 127.64832 28 ft 2 kts 48°
2026-04-22 21:52 26.20697 127.64824 28 ft 2 kts 48°
2026-04-22 21:52 26.20687 127.64812 28 ft 2 kts 48°
2026-04-22 21:53 26.20674 127.64795 27 ft 2 kts 42°
2026-04-22 21:53 26.20660 127.64788 27 ft 2 kts
2026-04-22 21:53 26.20650 127.64790 27 ft 2 kts 340°
2026-04-22 21:53 26.20634 127.64803 27 ft 2 kts 296°
2026-04-22 21:54 26.20631 127.64819 28 ft 1 kts 263°
2026-04-22 21:54 26.20632 127.64826 28 ft 0 kts 267°
2026-04-22 21:56 26.20631 127.64807 27 ft 8 kts 266°
2026-04-22 21:56 26.20628 127.64733 26 ft 9 kts 270°
2026-04-22 21:56 26.20627 127.64645 24 ft 12 kts 269°
2026-04-22 21:56 26.20625 127.64584 23 ft 2 kts 268°
2026-04-22 21:57 26.20623 127.64552 23 ft 4 kts 253°
2026-04-22 21:57 26.20594 127.64541 22 ft 4 kts 178°
2026-04-22 21:57 26.20557 127.64542 22 ft 9 kts 178°
2026-04-22 21:57 26.20273 127.64555 25 ft 76 kts 178°
2026-04-22 21:58 26.19515 127.64590 29 ft 139 kts 178°
2026-04-22 21:58 26.18432 127.64642 415 ft 158 kts 180°
2026-04-22 21:58 26.17355 127.64682 1158 ft 160 kts 183°
2026-04-22 21:58 26.16194 127.64716 1759 ft 176 kts 184°
2026-04-22 21:59 26.14918 127.64761 2404 ft 192 kts 183°
2026-04-22 21:59 26.13556 127.64829 3022 ft 209 kts 183°
2026-04-22 21:59 26.12032 127.64899 3718 ft 224 kts 182°
2026-04-22 21:59 26.10389 127.64981 4369 ft 242 kts 182°
2026-04-22 22:00 26.08657 127.65067 5040 ft 259 kts 182°
2026-04-22 22:00 26.07446 127.65128 5589 ft 265 kts 182°
2026-04-22 22:00 26.04976 127.65518 6695 ft 282 kts 165°
2026-04-22 22:00 26.03261 127.66619 7636 ft 293 kts 142°
2026-04-22 22:01 26.01973 127.68386 8569 ft 301 kts 123°
2026-04-22 22:01 26.01163 127.70517 9448 ft 308 kts 107°
2026-04-22 22:01 26.00950 127.72907 10282 ft 316 kts 90°
2026-04-22 22:01 26.01394 127.75359 10710 ft 336 kts 64°
2026-04-22 22:02 26.02226 127.76849 11106 ft 343 kts 51°
2026-04-22 22:02 26.04439 127.79498 11731 ft 363 kts 43°
2026-04-22 22:02 26.06255 127.81524 12178 ft 380 kts 44°
2026-04-22 22:02 26.07499 127.82985 12504 ft 390 kts 45°
2026-04-22 22:03 26.09963 127.86095 13048 ft 412 kts 48°
2026-04-22 22:03 26.11178 127.87712 13434 ft 418 kts 49°
2026-04-22 22:03 26.13658 127.91103 14453 ft 424 kts 49°
2026-04-22 22:03 26.15506 127.93611 15233 ft 424 kts 47°
2026-04-22 22:04 26.17553 127.95997 15937 ft 425 kts 39°
2026-04-22 22:04 26.19880 127.98029 16601 ft 426 kts 32°
2026-04-22 22:04 26.22346 127.99808 17320 ft 426 kts 28°
2026-04-22 22:04 26.24899 128.01482 17980 ft 429 kts 26°
2026-04-22 22:05 26.27501 128.03128 18523 ft 434 kts 26°
2026-04-22 22:05 26.30143 128.04803 19119 ft 438 kts 26°
2026-04-22 22:05 26.32797 128.06522 19719 ft 442 kts 26°
2026-04-22 22:05 26.35478 128.08287 20258 ft 447 kts 27°
2026-04-22 22:06 26.38145 128.10068 20766 ft 452 kts 27°
2026-04-22 22:06 26.39958 128.11287 21130 ft 455 kts 27°
2026-04-22 22:06 26.43566 128.13725 21871 ft 459 kts 27°
2026-04-22 22:06 26.46332 128.15602 22332 ft 464 kts 27°
2026-04-22 22:07 26.49098 128.17480 22846 ft 468 kts 27°
2026-04-22 22:07 26.51900 128.19380 23307 ft 472 kts 27°
2026-04-22 22:07 26.54719 128.21292 23775 ft 477 kts 27°
2026-04-22 22:07 26.57568 128.23225 24326 ft 479 kts 27°
2026-04-22 22:08 26.60404 128.25151 24860 ft 481 kts 27°
2026-04-22 22:08 26.63291 128.27118 25346 ft 485 kts 28°
2026-04-22 22:08 26.65166 128.28497 25642 ft 489 kts 31°
2026-04-22 22:08 26.68734 128.31663 26189 ft 499 kts 38°
2026-04-22 22:09 26.71232 128.34439 26673 ft 504 kts 44°
2026-04-22 22:09 26.73554 128.37370 27160 ft 507 kts 46°
2026-04-22 22:09 26.75818 128.40437 27521 ft 513 kts 48°
2026-04-22 22:09 26.78042 128.43571 27876 ft 518 kts 49°
2026-04-22 22:10 26.80266 128.46764 28286 ft 521 kts 49°
2026-04-22 22:10 26.82463 128.49942 28923 ft 518 kts 49°
2026-04-22 22:10 26.84661 128.53128 29617 ft 514 kts 49°
2026-04-22 22:10 26.86827 128.56255 30340 ft 510 kts 49°
2026-04-22 22:11 26.89009 128.59370 30998 ft 506 kts 48°
2026-04-22 22:11 26.91235 128.62380 31485 ft 505 kts 44°
2026-04-22 22:11 26.92854 128.64299 31821 ft 502 kts 40°
2026-04-22 22:11 26.96345 128.67722 32399 ft 498 kts 32°
2026-04-22 22:12 26.99159 128.69900 32900 ft 491 kts 26°
2026-04-22 22:12 27.02097 128.71783 33465 ft 486 kts 22°
2026-04-22 22:12 27.05089 128.73483 34058 ft 481 kts 20°
2026-04-22 22:12 27.08108 128.75119 34640 ft 477 kts 19°
2026-04-22 22:13 27.11130 128.76755 34843 ft 480 kts 19°
2026-04-22 22:13 27.17154 128.80127 34829 ft 482 kts 21°
2026-04-22 22:14 27.23137 128.83649 34828 ft 482 kts 21°
2026-04-22 22:14 27.29059 128.87221 34827 ft 484 kts 22°
2026-04-22 22:15 27.35031 128.90858 34827 ft 487 kts 22°
2026-04-22 22:15 27.40989 128.94499 34819 ft 488 kts 22°
2026-04-22 22:16 27.46981 128.98167 34812 ft 488 kts 21°
2026-04-22 22:16 27.51961 129.01219 34810 ft 488 kts 21°
2026-04-22 22:17 27.58984 129.05525 34811 ft 491 kts 22°
2026-04-22 22:17 27.64981 129.09210 34807 ft 487 kts 22°
2026-04-22 22:18 27.70980 129.12895 34803 ft 494 kts 21°
2026-04-22 22:18 27.77057 129.16632 34796 ft 490 kts 22°
2026-04-22 22:19 27.83098 129.20354 34795 ft 494 kts 21°
2026-04-22 22:19 27.89153 129.24086 34791 ft 494 kts 21°
2026-04-22 22:20 27.95188 129.27815 34795 ft 492 kts 21°
2026-04-22 22:20 28.01212 129.31541 34793 ft 495 kts 22°
2026-04-22 22:21 28.07230 129.35271 34795 ft 493 kts 21°
2026-04-22 22:21 28.13281 129.39026 34793 ft 494 kts 21°
2026-04-22 22:22 28.19335 129.42786 34784 ft 492 kts 21°
2026-04-22 22:22 28.25362 129.46533 34782 ft 491 kts 22°
2026-04-22 22:23 28.31420 129.50302 34781 ft 493 kts 22°
2026-04-22 22:23 28.37423 129.54044 34779 ft 493 kts 22°
2026-04-22 22:24 28.43528 129.57552 34773 ft 485 kts 15°
2026-04-22 22:24 28.49961 129.59538 34778 ft 472 kts
2026-04-22 22:25 28.56430 129.60573 34770 ft 469 kts 358°
2026-04-22 22:25 28.62907 129.61410 34768 ft 466 kts 358°
2026-04-22 22:26 28.68297 129.62134 34768 ft 467 kts 358°
2026-04-22 22:26 28.74793 129.63060 34770 ft 466 kts 359°
2026-04-22 22:27 28.82379 129.64191 34760 ft 466 kts 359°
2026-04-22 22:27 28.88829 129.65173 34760 ft 467 kts 359°
2026-04-22 22:28 28.95313 129.66164 34759 ft 470 kts 360°
2026-04-22 22:28 29.01821 129.67160 34751 ft 468 kts 360°
2026-04-22 22:29 29.07258 129.67992 34750 ft 471 kts 359°
2026-04-22 22:29 29.13796 129.68997 34747 ft 472 kts 360°
2026-04-22 22:30 29.20283 129.69997 34742 ft 469 kts 360°
2026-04-22 22:30 29.27874 129.71170 34740 ft 471 kts 359°
2026-04-22 22:31 29.33321 129.72009 34735 ft 472 kts 360°
2026-04-22 22:31 29.40930 129.73184 34729 ft 473 kts 359°
2026-04-22 22:32 29.46411 129.74030 34729 ft 473 kts 359°
2026-04-22 22:32 29.54106 129.75217 34723 ft 476 kts 360°
2026-04-22 22:33 29.59561 129.76065 34713 ft 475 kts 360°
2026-04-22 22:33 29.67239 129.77261 34720 ft 474 kts 360°
2026-04-22 22:34 29.73786 129.78281 34717 ft 477 kts 360°
2026-04-22 22:34 29.80401 129.79308 34708 ft 480 kts 360°
2026-04-22 22:35 29.85922 129.80167 34705 ft 477 kts 360°
2026-04-22 22:35 29.92514 129.81200 34704 ft 478 kts
2026-04-22 22:36 29.99108 129.82227 34701 ft 479 kts 360°
2026-04-22 22:36 30.05777 129.83153 34699 ft 477 kts 358°
2026-04-22 22:37 30.12396 129.83852 34692 ft 476 kts 356°
2026-04-22 22:37 30.20137 129.84622 34709 ft 476 kts 357°
2026-04-22 22:38 30.25654 129.85187 34700 ft 481 kts 357°
2026-04-22 22:38 30.32345 129.85890 34693 ft 481 kts 357°
2026-04-22 22:39 30.39049 129.86612 34681 ft 481 kts 357°
2026-04-22 22:39 30.45723 129.87334 34681 ft 482 kts 357°
2026-04-22 22:40 30.53503 129.88181 34678 ft 482 kts 357°
2026-04-22 22:40 30.60276 129.88919 34670 ft 485 kts 357°
2026-04-22 22:41 30.65879 129.89529 34677 ft 486 kts 357°
2026-04-22 22:41 30.72647 129.90273 34673 ft 485 kts 357°
2026-04-22 22:42 30.80505 129.91135 34666 ft 486 kts 357°
2026-04-22 22:42 30.87289 129.91878 34665 ft 486 kts 356°
2026-04-22 22:43 30.92930 129.92496 34662 ft 487 kts 357°
2026-04-22 22:43 30.99710 129.93240 34658 ft 489 kts 357°
2026-04-22 22:44 31.06486 129.93985 34657 ft 488 kts 357°
2026-04-22 22:44 31.14458 129.94865 34658 ft 490 kts 357°
2026-04-22 22:45 31.20097 129.95494 34658 ft 486 kts 357°
2026-04-22 22:45 31.26909 129.96245 34657 ft 493 kts 357°
2026-04-22 22:46 31.33664 129.96936 34661 ft 484 kts 355°
2026-04-22 22:46 31.41563 129.97559 34659 ft 484 kts 355°
2026-04-22 22:47 31.47180 129.97967 34658 ft 484 kts 355°
2026-04-22 22:47 31.53929 129.98471 34659 ft 482 kts 355°
2026-04-22 22:48 31.60634 129.98991 34658 ft 483 kts 355°
2026-04-22 22:48 31.67417 129.99524 34657 ft 483 kts 355°
2026-04-22 22:49 31.74133 130.00055 34656 ft 485 kts 356°
2026-04-22 22:49 31.82018 130.00684 34664 ft 484 kts 356°
2026-04-22 22:50 31.87612 130.01131 34659 ft 484 kts 356°
2026-04-22 22:50 31.94347 130.01669 34653 ft 485 kts 356°
2026-04-22 22:51 32.02187 130.02303 34658 ft 479 kts 356°
2026-04-22 22:51 32.08941 130.02844 34669 ft 483 kts 356°
2026-04-22 22:52 32.14548 130.03294 34664 ft 480 kts 356°
2026-04-22 22:52 32.21232 130.03832 34669 ft 481 kts 356°
2026-04-22 22:53 32.27952 130.04369 34671 ft 485 kts 356°
2026-04-22 22:53 32.34671 130.04916 34677 ft 481 kts 356°
2026-04-22 22:54 32.41335 130.05452 34680 ft 486 kts 356°
2026-04-22 22:54 32.47914 130.05983 34677 ft 483 kts 356°
2026-04-22 22:55 32.54587 130.06526 34680 ft 481 kts 356°
2026-04-22 22:55 32.64520 130.06158 34393 ft 463 kts 343°
2026-04-22 22:56 32.67672 130.05505 33900 ft 454 kts 340°
2026-04-22 22:56 32.70760 130.04736 33258 ft 451 kts 339°
2026-04-22 22:56 32.73812 130.03912 32541 ft 451 kts 339°
2026-04-22 22:56 32.77878 130.02788 31497 ft 454 kts 339°
2026-04-22 22:57 32.79935 130.02220 30929 ft 456 kts 340°
2026-04-22 22:57 32.83042 130.01378 30052 ft 459 kts 340°
2026-04-22 22:57 32.86147 130.00549 29147 ft 462 kts 341°
2026-04-22 22:57 32.90377 129.99440 28203 ft 460 kts 341°
2026-04-22 22:58 32.93490 129.98639 27555 ft 457 kts 341°
2026-04-22 22:58 32.95553 129.98109 27111 ft 456 kts 341°
2026-04-22 22:58 32.98632 129.97324 26423 ft 454 kts 342°
2026-04-22 22:58 33.01717 129.96536 25733 ft 452 kts 342°
2026-04-22 22:59 33.05809 129.95491 24809 ft 448 kts 341°
2026-04-22 22:59 33.07825 129.94974 24354 ft 447 kts 342°
2026-04-22 22:59 33.10868 129.94194 23676 ft 444 kts 342°
2026-04-22 22:59 33.13882 129.93422 22997 ft 442 kts 342°
2026-04-22 23:00 33.16886 129.92650 22315 ft 440 kts 342°
2026-04-22 23:00 33.20872 129.91628 21396 ft 438 kts 342°
2026-04-22 23:00 33.23849 129.90863 20704 ft 436 kts 342°
2026-04-22 23:00 33.25812 129.90356 20234 ft 435 kts 342°
2026-04-22 23:01 33.28774 129.89592 19539 ft 433 kts 342°
2026-04-22 23:01 33.31716 129.88834 18826 ft 431 kts 342°
2026-04-22 23:01 33.34620 129.88086 18139 ft 429 kts 342°
2026-04-22 23:01 33.37518 129.87337 17448 ft 427 kts 343°
2026-04-22 23:02 33.40438 129.86581 16752 ft 424 kts 343°
2026-04-22 23:02 33.43284 129.85843 16057 ft 421 kts 343°
2026-04-22 23:02 33.46174 129.85222 15297 ft 415 kts 349°
2026-04-22 23:02 33.49003 129.85071 14636 ft 408 kts
2026-04-22 23:03 33.52638 129.85908 13799 ft 391 kts 13°
2026-04-22 23:03 33.54365 129.86530 13387 ft 390 kts 14°
2026-04-22 23:03 33.56969 129.87535 12739 ft 388 kts 16°
2026-04-22 23:03 33.59513 129.88538 12131 ft 385 kts 16°
2026-04-22 23:04 33.62042 129.89514 11671 ft 378 kts 16°
2026-04-22 23:04 33.64545 129.90454 11109 ft 374 kts 16°
2026-04-22 23:04 33.67026 129.91365 10506 ft 371 kts 16°
2026-04-22 23:04 33.69468 129.92247 9902 ft 368 kts 17°
2026-04-22 23:05 33.71921 129.93132 9295 ft 363 kts 17°
2026-04-22 23:05 33.74985 129.94630 8512 ft 351 kts 31°
2026-04-22 23:05 33.76277 129.95798 8180 ft 341 kts 45°
2026-04-22 23:05 33.77594 129.98090 7877 ft 327 kts 66°
2026-04-22 23:06 33.78205 130.00641 7333 ft 313 kts 82°
2026-04-22 23:06 33.78397 130.03214 6509 ft 308 kts 86°
2026-04-22 23:06 33.78531 130.05728 5680 ft 303 kts 85°
2026-04-22 23:06 33.78728 130.09067 4691 ft 296 kts 85°
2026-04-22 23:07 33.78826 130.10702 4549 ft 287 kts 84°
2026-04-22 23:07 33.78968 130.13005 4494 ft 270 kts 84°
2026-04-22 23:07 33.79102 130.15199 4433 ft 255 kts 83°
2026-04-22 23:07 33.79221 130.17281 4357 ft 241 kts 84°
2026-04-22 23:08 33.79375 130.19864 4240 ft 227 kts 84°
2026-04-22 23:08 33.79452 130.21112 4174 ft 220 kts 84°
2026-04-22 23:08 33.79550 130.22903 4067 ft 211 kts 85°
2026-04-22 23:08 33.79651 130.24690 3994 ft 220 kts 84°
2026-04-22 23:09 33.79759 130.26512 3869 ft 217 kts 84°
2026-04-22 23:09 33.79849 130.28281 3758 ft 208 kts 87°
2026-04-22 23:09 33.79650 130.29991 3627 ft 207 kts 109°
2026-04-22 23:09 33.78762 130.31360 3428 ft 213 kts 137°
2026-04-22 23:10 33.77456 130.32262 3220 ft 215 kts 147°
2026-04-22 23:10 33.76123 130.33089 3069 ft 214 kts 144°
2026-04-22 23:10 33.74835 130.33978 2913 ft 213 kts 143°
2026-04-22 23:10 33.73557 130.34871 2757 ft 213 kts 143°
2026-04-22 23:11 33.72258 130.35757 2572 ft 214 kts 144°
2026-04-22 23:11 33.70956 130.36639 2373 ft 210 kts 144°
2026-04-22 23:11 33.69712 130.37488 2205 ft 202 kts 143°
2026-04-22 23:11 33.68502 130.38315 2030 ft 194 kts 143°
2026-04-22 23:12 33.67341 130.39110 1793 ft 191 kts 143°
2026-04-22 23:12 33.66204 130.39885 1555 ft 179 kts 143°
2026-04-22 23:12 33.65158 130.40593 1278 ft 168 kts 143°
2026-04-22 23:12 33.64190 130.41257 1117 ft 156 kts 142°
2026-04-22 23:13 33.63259 130.41896 864 ft 151 kts 142°
2026-04-22 23:13 33.62050 130.42734 596 ft 148 kts 143°
2026-04-22 23:13 33.61438 130.43141 477 ft 152 kts 147°
2026-04-22 23:13 33.60197 130.43973 214 ft 153 kts 144°
2026-04-22 23:14 33.59589 130.44385 79 ft 154 kts 146°
2026-04-22 23:14 33.58715 130.44986 40 ft 120 kts 150°
2026-04-22 23:14 33.58166 130.45389 40 ft 32 kts 130°
2026-04-22 23:14 33.58079 130.45522 40 ft 20 kts 121°
2026-04-22 23:15 33.58088 130.45609 40 ft 10 kts 30°
2026-04-22 23:15 33.58173 130.45583 40 ft 9 kts 329°
2026-04-22 23:15 33.58229 130.45544 40 ft 9 kts 330°
2026-04-22 23:15 33.58265 130.45520 40 ft 8 kts 330°
2026-04-22 23:16 33.58338 130.45471 40 ft 18 kts 330°
2026-04-22 23:16 33.58543 130.45331 40 ft 27 kts 329°
2026-04-22 23:16 33.58710 130.45216 40 ft 27 kts 329°
2026-04-22 23:16 33.58820 130.45142 40 ft 27 kts 331°
2026-04-22 23:17 33.59042 130.44991 40 ft 27 kts 331°
2026-04-22 23:17 33.59150 130.44917 40 ft 26 kts 327°
2026-04-22 23:17 33.59321 130.44855 40 ft 21 kts
2026-04-22 23:17 33.59425 130.44827 40 ft 11 kts 329°
2026-04-22 23:18 33.59487 130.44786 40 ft 7 kts 338°
2026-04-22 23:18 33.59523 130.44814 40 ft 6 kts 54°
2026-04-22 23:18 33.59539 130.44846 40 ft 0 kts 60°